Previsão horária em Al Khums

Hoje, 16 Janeiro, Sábado

Tempo Temperatura Precipitação Vento Pressão Humidade
00:00 +11°C° 0 mm 7 m/s 761 mmHg 70%
01:00 +11°C° 0 mm 7 m/s 760 mmHg 70%
02:00 +11°C° 0.1 mm 8 m/s 760 mmHg 70%
03:00 +10°C° 0.1 mm 8 m/s 760 mmHg 71%
04:00 +10°C° 0.1 mm 8 m/s 760 mmHg 72%
05:00 +10°C° 0.2 mm 9 m/s 760 mmHg 71%
06:00 +11°C° 0.2 mm 9 m/s 760 mmHg 71%
07:00 +11°C° 0 mm 9 m/s 760 mmHg 69%
08:00 +12°C° 0 mm 10 m/s 760 mmHg 64%
09:00 +13°C° 0 mm 10 m/s 760 mmHg 58%
10:00 +14°C° 0 mm 11 m/s 761 mmHg 53%
11:00 +14°C° 0 mm 11 m/s 760 mmHg 51%
12:00 +15°C° 0 mm 12 m/s 760 mmHg 49%
13:00 +15°C° 0 mm 12 m/s 759 mmHg 47%
14:00 +15°C° 0 mm 12 m/s 759 mmHg 49%
15:00 +14°C° 0 mm 11 m/s 759 mmHg 50%
16:00 +14°C° 0 mm 11 m/s 760 mmHg 52%
17:00 +13°C° 0.1 mm 10 m/s 760 mmHg 56%
18:00 +13°C° 0.1 mm 9 m/s 760 mmHg 61%
19:00 +12°C° 0.1 mm 9 m/s 760 mmHg 66%
20:00 +12°C° 0.2 mm 8 m/s 761 mmHg 68%
21:00 +11°C° 0.2 mm 8 m/s 761 mmHg 70%
22:00 +11°C° 0.2 mm 8 m/s 762 mmHg 72%
23:00 +11°C° 0.2 mm 8 m/s 762 mmHg 73%

Amanhã, 17 Janeiro, Domingo

Tempo Temperatura Precipitação Vento Pressão Humidade
00:00 +11°C° 0.2 mm 8 m/s 762 mmHg 74%
01:00 +10°C° 0.2 mm 8 m/s 762 mmHg 75%
02:00 +10°C° 0.2 mm 8 m/s 762 mmHg 75%
03:00 +10°C° 0.2 mm 9 m/s 762 mmHg 76%
04:00 +10°C° 0.2 mm 9 m/s 762 mmHg 76%
05:00 +10°C° 0.3 mm 9 m/s 762 mmHg 77%
06:00 +10°C° 0.3 mm 9 m/s 762 mmHg 77%
07:00 +10°C° 0.3 mm 9 m/s 763 mmHg 78%
08:00 +11°C° 0.2 mm 9 m/s 763 mmHg 74%
09:00 +12°C° 0.2 mm 9 m/s 764 mmHg 69%
10:00 +13°C° 0.2 mm 9 m/s 765 mmHg 65%
11:00 +15°C° 0.1 mm 9 m/s 765 mmHg 62%
12:00 +15°C° 0.1 mm 9 m/s 765 mmHg 60%
13:00 +15°C° 0.1 mm 9 m/s 764 mmHg 57%
14:00 +15°C° 0 mm 8 m/s 764 mmHg 56%
15:00 +15°C° 0 mm 8 m/s 765 mmHg 56%
16:00 +13°C° 0 mm 8 m/s 765 mmHg 56%
17:00 +13°C° 0 mm 8 m/s 765 mmHg 59%
18:00 +12°C° 0 mm 8 m/s 765 mmHg 63%
19:00 +12°C° 0 mm 8 m/s 765 mmHg 67%
20:00 +11°C° 0 mm 8 m/s 765 mmHg 68%
21:00 +11°C° 0 mm 8 m/s 765 mmHg 69%
22:00 +11°C° 0 mm 8 m/s 765 mmHg 70%
23:00 +11°C° 0 mm 8 m/s 765 mmHg 68%

Depois de amanhã, 18 Janeiro, Segunda-feira

Tempo Temperatura Precipitação Vento Pressão Humidade
00:00 +11°C° 0 mm 9 m/s 765 mmHg 67%
01:00 +10°C° 0 mm 9 m/s 765 mmHg 65%
02:00 +9°C° 0 mm 10 m/s 764 mmHg 61%
03:00 +9°C° 0 mm 10 m/s 764 mmHg 57%
04:00 +9°C° 0 mm 11 m/s 763 mmHg 53%
05:00 +9°C° 0 mm 11 m/s 764 mmHg 53%
06:00 +9°C° 0 mm 11 m/s 764 mmHg 54%
07:00 +8°C° 0 mm 11 m/s 764 mmHg 55%
08:00 +9°C° 0 mm 11 m/s 764 mmHg 55%
09:00 +11°C° 0 mm 11 m/s 764 mmHg 54%
10:00 +12°C° 0 mm 11 m/s 765 mmHg 53%
11:00 +13°C° 0 mm 11 m/s 764 mmHg 53%
12:00 +13°C° 0 mm 11 m/s 764 mmHg 53%
13:00 +14°C° 0 mm 11 m/s 764 mmHg 53%
14:00 +14°C° 0.1 mm 11 m/s 764 mmHg 57%
15:00 +14°C° 0.1 mm 11 m/s 764 mmHg 60%
16:00 +14°C° 0.1 mm 11 m/s 764 mmHg 63%
17:00 +14°C° 0.1 mm 11 m/s 764 mmHg 63%
18:00 +13°C° 0.1 mm 10 m/s 765 mmHg 62%
19:00 +13°C° 0.1 mm 10 m/s 765 mmHg 61%
20:00 +13°C° 0.3 mm 9 m/s 766 mmHg 65%
21:00 +12°C° 0.3 mm 8 m/s 766 mmHg 69%
22:00 +12°C° 0.3 mm 7 m/s 766 mmHg 73%
23:00 +13°C° 0.2 mm 6 m/s 767 mmHg 72%

19 Janeiro, Terça-feira

Tempo Temperatura Precipitação Vento Pressão Humidade
00:00 +13°C° 0.2 mm 6 m/s 767 mmHg 71%
01:00 +13°C° 0.2 mm 5 m/s 767 mmHg 70%
02:00 +13°C° 0.1 mm 5 m/s 767 mmHg 69%
03:00 +13°C° 0.1 mm 5 m/s 767 mmHg 68%
04:00 +13°C° 0.1 mm 5 m/s 767 mmHg 66%
05:00 +13°C° 0 mm 5 m/s 767 mmHg 65%
06:00 +12°C° 0 mm 5 m/s 768 mmHg 63%
07:00 +12°C° 0 mm 4 m/s 768 mmHg 61%
08:00 +13°C° 0 mm 5 m/s 768 mmHg 57%
09:00 +14°C° 0 mm 5 m/s 769 mmHg 53%
10:00 +15°C° 0 mm 5 m/s 769 mmHg 48%
11:00 +15°C° 0 mm 5 m/s 769 mmHg 47%
12:00 +15°C° 0 mm 4 m/s 769 mmHg 46%
13:00 +17°C° 0 mm 4 m/s 769 mmHg 46%
14:00 +15°C° 0 mm 4 m/s 769 mmHg 47%
15:00 +16°C° 0 mm 3 m/s 769 mmHg 48%
16:00 +16°C° 0 mm 3 m/s 769 mmHg 48%
17:00 +15°C° 0 mm 2 m/s 769 mmHg 51%
18:00 +15°C° 0 mm 2 m/s 769 mmHg 54%
19:00 +14°C° 0 mm 1 m/s 770 mmHg 57%
20:00 +14°C° 0 mm 1 m/s 770 mmHg 58%
21:00 +13°C° 0 mm 1 m/s 770 mmHg 59%
22:00 +13°C° 0 mm 1 m/s 771 mmHg 60%
23:00 +13°C° 0 mm 2 m/s 771 mmHg 62%

20 Janeiro, Quarta-feira

Tempo Temperatura Precipitação Vento Pressão Humidade
00:00 +13°C° 0 mm 2 m/s 770 mmHg 63%
01:00 +11°C° 0 mm 3 m/s 770 mmHg 64%
02:00 +11°C° 0 mm 3 m/s 770 mmHg 66%
03:00 +11°C° 0 mm 4 m/s 770 mmHg 67%
04:00 +10°C° 0 mm 4 m/s 770 mmHg 69%
05:00 +10°C° 0 mm 4 m/s 770 mmHg 69%
06:00 +10°C° 0 mm 4 m/s 770 mmHg 69%
07:00 +9°C° 0 mm 5 m/s 770 mmHg 70%
08:00 +10°C° 0 mm 5 m/s 770 mmHg 65%
09:00 +11°C° 0 mm 6 m/s 770 mmHg 61%
10:00 +13°C° 0 mm 6 m/s 770 mmHg 57%
11:00 +14°C° 0 mm 6 m/s 770 mmHg 53%
12:00 +15°C° 0 mm 6 m/s 769 mmHg 50%
13:00 +16°C° 0 mm 6 m/s 769 mmHg 46%
14:00 +16°C° 0 mm 6 m/s 769 mmHg 44%
15:00 +16°C° 0 mm 6 m/s 768 mmHg 43%
16:00 +16°C° 0 mm 5 m/s 768 mmHg 41%
17:00 +16°C° 0 mm 6 m/s 768 mmHg 43%
18:00 +15°C° 0 mm 6 m/s 768 mmHg 46%
19:00 +14°C° 0 mm 6 m/s 768 mmHg 48%
20:00 +12°C° 0 mm 7 m/s 768 mmHg 49%
21:00 +12°C° 0 mm 7 m/s 768 mmHg 50%
22:00 +11°C° 0 mm 8 m/s 768 mmHg 51%
23:00 +11°C° 0 mm 8 m/s 767 mmHg 52%

21 Janeiro, Quinta-feira

Tempo Temperatura Precipitação Vento Pressão Humidade
00:00 +11°C° 0 mm 8 m/s 767 mmHg 53%
01:00 +10°C° 0 mm 8 m/s 767 mmHg 53%
02:00 +10°C° 0 mm 8 m/s 767 mmHg 53%
03:00 +10°C° 0 mm 8 m/s 767 mmHg 53%
04:00 +10°C° 0 mm 8 m/s 766 mmHg 53%
05:00 +10°C° 0 mm 8 m/s 767 mmHg 53%
06:00 +10°C° 0 mm 7 m/s 767 mmHg 54%
07:00 +10°C° 0 mm 7 m/s 767 mmHg 54%
08:00 +11°C° 0 mm 7 m/s 767 mmHg 50%
09:00 +13°C° 0 mm 6 m/s 767 mmHg 46%
10:00 +15°C° 0 mm 5 m/s 767 mmHg 42%
11:00 +16°C° 0 mm 5 m/s 767 mmHg 39%
12:00 +18°C° 0 mm 4 m/s 766 mmHg 36%
13:00 +19°C° 0 mm 4 m/s 766 mmHg 33%
14:00 +19°C° 0 mm 4 m/s 765 mmHg 34%
15:00 +19°C° 0 mm 3 m/s 765 mmHg 34%
16:00 +19°C° 0 mm 3 m/s 765 mmHg 35%
17:00 +18°C° 0 mm 3 m/s 765 mmHg 39%
18:00 +17°C° 0 mm 3 m/s 765 mmHg 43%
19:00 +16°C° 0 mm 2 m/s 765 mmHg 47%
20:00 +16°C° 0 mm 2 m/s 765 mmHg 47%
21:00 +15°C° 0 mm 2 m/s 765 mmHg 46%
22:00 +15°C° 0 mm 2 m/s 765 mmHg 46%
23:00 +14°C° 0 mm 3 m/s 765 mmHg 45%
Mostrar mais

Necessitamos do seu Consentimento

A Meteoprog e os seus Fornecedores de Serviços podem armazenar e aceder a dados pessoais como cookies, identificadores do dispositivo ou outras tecnologias semelhantes existentes no seu dispositivo e processar estes dados para personalizar conteúdos e anúncios, assim como funcionalidades nas redes sociais e análise de tráfego.

  • Armazenar e/ou aceder a informações no seu dispositivo

    Os cookies, identificadores do dispositivo ou outras informações podem ser armazenados ou acedidos no seu dispositivo, para os fins acima indicados.

  • Anúncios e conteúdos personalizados, medição de anúncios e conteúdos, dados sobre o público-alvo e desenvolvimento de produtos

    Os anúncios e os conteúdos podem ser personalizados com base num perfil. Podem ser adicionados dados adicionais para uma maior personalização dos anúncios e dos conteúdos. A eficácia dos anúncios e dos conteúdos pode ser medida. Podem ser obtidas informações sobre o público que visualizou os anúncios e os conteúdos. Estes dados podem ser usados para desenvolver ou melhorar sistemas, softwares ou a experiência do utilizador.

Ao clicar em "Eu concordo”, permitirá o uso de cookies, identificadores do dispositivo e web beacons mencionados ou outras tecnologias semelhantes. As configurações do navegador do seu dispositivo podem ser alteradas.

Para certos fins, podem ser invocados interesses legítimos ao invés de consentimento. Pode ler mais informação sobre este assunto na nossa Política de Privacidade e Cookies.